[[{"header":{"parameterUnit":"m.s-1","parameterCategory":1,"la1":30.2991,"la2":30.254,"lo1":-89.0895,"lo2":-89.0444,"dy":0.0017,"dx":0.0017,"nx":28,"ny":28,"refTime":"2024-10-06T03:00:00:Z","depth":0,"parameterNumber":2,"parameterNumberName":"U-component_of_WINDS"},"data":[0,0,0,0,0,0,0,0,0,0,0,0,0,0,0,0,0,0,0,0,0,0,0,0,0,0,0,0,0,0,0,0,0,0,0,0,0,0,0,0,0,0,0,0,0,0,0,0,0,0,0,0,0,0,0,0,0,0,-4.4929,-4.493,0,-4.4965,-4.4966,-4.4966,-4.4807,-4.4802,-4.4797,-4.4793,-4.483,-4.4836,-4.4841,0,0,0,0,0,0,0,0,0,0,0,0,0,-4.4722,-4.4727,-4.4929,-4.493,-4.493,-4.4965,-4.4966,-4.4966,-4.4807,-4.4802,-4.4796,-4.4791,-4.4829,-4.4835,-4.4841,0,0,0,0,0,0,0,0,0,0,0,0,0,-4.4791,-4.4728,-4.4929,-4.4855,-4.4849,-4.4965,-4.4966,-4.4966,-4.4809,-4.4802,-4.4795,-4.4788,-4.4826,-4.4834,-4.4842,-4.5031,0,0,-4.4867,-4.487,0,0,0,0,0,0,0,0,-4.4787,-4.4798,-4.4865,-4.486,-4.4853,-4.4874,-4.4906,-4.4988,-4.481,-4.4824,-4.4793,-4.4785,-4.4851,-4.4856,-4.4878,-4.5033,-4.5035,-4.4867,-4.4872,-4.4876,-4.4878,0,0,0,0,0,0,0,-4.4782,-4.4796,-4.4943,-4.4867,-4.4859,-4.482,-4.4822,-4.4921,-4.4876,-4.4822,-4.4811,-4.4817,-4.4846,-4.4871,-4.4878,-4.5035,-4.4867,-4.4874,-4.4879,-4.4882,-4.5347,-4.5354,0,0,0,0,0,0,-4.4787,-4.4793,-4.4942,-4.4944,-4.4802,-4.4829,-4.4831,-4.4875,-4.4874,-4.4868,-4.4823,-4.481,-4.4861,-4.4869,-4.4879,-4.5101,-4.4876,-4.4883,-4.4888,-4.5339,-4.5349,-4.5357,0,0,0,0,0,0,-4.4784,-4.4802,-4.4941,-4.4866,-4.488,-4.484,-4.489,-4.4879,-4.4904,-4.4875,-4.4866,-4.4857,-4.4856,-4.4867,-4.4995,-4.51,-4.4887,-4.4894,-4.5331,-4.5342,-4.5353,-4.5546,0,0,0,0,0,0,-4.4778,-4.4802,-4.4874,-4.4868,-4.4885,-4.5057,-4.4896,-4.4885,-4.4918,-4.4901,-4.4905,-4.4899,-4.4851,-4.4983,-4.5003,-4.5107,-4.49,-4.5321,-4.5336,-4.5349,-4.553,-4.5563,-4.5591,0,0,0,0,0,-4.4772,-4.4927,-4.4878,-4.4897,-4.4974,-4.5063,-4.5072,-4.5015,-4.4927,-4.4999,-4.498,-4.4898,-4.5085,-4.4998,-4.5018,-4.5126,-4.5314,-4.5332,-4.5348,-4.5517,-4.5557,-4.559,0,0,0,0,0,0,-4.4946,-4.4925,-4.4871,-4.5029,-4.5049,-4.5036,-4.5125,-4.5058,-4.5104,-4.5086,-4.5012,-4.5014,-4.5154,-4.5152,-4.5056,-4.5309,-4.5184,-4.5206,-4.5306,-4.5343,-4.5373,-4.5371,-4.4907,0,0,0,0,0,-4.5003,-4.5077,-4.5054,-4.5196,-4.5209,-4.5166,-4.5203,-4.5156,-4.5174,-4.5182,-4.5172,-4.5193,-4.5255,-4.5299,-4.5355,-4.5528,-4.5527,-4.5613,-4.5643,-4.5668,-4.5688,-4.578,-4.5818,-4.5412,-4.5412,-4.5412,0,0,-4.5121,-4.5119,-4.517,-4.5232,-4.5242,-4.532,-4.5174,-4.5264,-4.5321,-4.5195,-4.5315,-4.5309,-4.5327,-4.5478,-4.5544,-4.5481,-4.5799,-4.5689,-4.571,-4.5716,-4.5801,-4.584,-4.5874,-4.5424,-4.5422,-4.542,0,0,-4.5378,-4.5383,-4.5502,-4.5515,-4.5532,-4.5502,-4.553,-4.5527,-4.5519,-4.5637,-4.5544,-4.5611,-4.5721,-4.5738,-4.5761,-4.6023,-4.5949,-4.6043,-4.6201,-4.6291,-4.6323,-4.6351,-4.6446,-4.648,-4.6063,-4.6063,-4.6064,0,-4.5523,-4.5638,-4.5572,-4.5668,-4.5697,-4.5586,-4.5706,-4.5721,-4.5756,-4.5779,-4.5707,-4.5843,-4.5847,-4.6001,-4.6065,-4.6087,-4.6117,-4.6043,-4.6324,-4.6351,-4.6377,-4.6466,-4.6501,-4.6075,-4.6073,-4.6072,-4.6071,0,-4.5816,-4.5897,-4.5991,-4.6028,-4.6067,-4.6175,-4.6125,-4.6173,-4.6123,-4.61,-4.6223,-4.6223,-4.6278,-4.631,-4.6262,-4.6458,-4.6418,-4.6337,-4.621,-4.6428,-4.651,-4.6544,-4.6091,-4.6087,-4.6083,-4.6081,0,0,-4.6185,-4.6183,-4.6219,-4.6234,-4.6244,-4.6305,-4.6407,-4.646,-4.6504,-4.6531,-4.6615,-4.671,-4.6634,-4.6661,-4.6613,-4.6692,-4.69,-4.66,-4.66,-4.6657,-4.7117,-4.7179,-4.722,-4.6851,-4.6857,-4.6862,-4.7115,0,-4.6437,-4.6612,-4.6555,-4.6732,-4.6807,-4.6701,-4.679,-4.6806,-4.6787,-4.6847,-4.6826,-4.6895,-4.679,-4.6805,-4.6878,-4.686,-4.6992,-4.684,-4.6929,-4.6933,-4.693,-4.7263,-4.7329,-4.7569,-4.7147,-4.7153,-4.7156,0,-4.6755,-4.6795,-4.6981,-4.6978,-4.7007,-4.7088,-4.7132,-4.719,-4.7206,-4.7186,-4.7216,-4.7151,-4.725,-4.7122,-4.7259,-4.7157,-4.719,-4.7186,-4.7194,-4.7201,-4.706,-4.7281,-4.7643,-4.768,-4.7206,-4.7202,-4.7199,0,-4.7008,-4.7108,-4.7231,-4.7247,-4.7247,-4.7306,-4.7309,-4.7317,-4.7353,-4.7391,-4.7413,-4.7462,-4.749,-4.753,-4.748,-4.7391,-4.7624,-4.7492,-4.7612,-4.7614,-4.7667,-4.7665,-4.8042,-4.7686,-4.7686,-4.7685,-4.7684,0,-4.7296,-4.7414,-4.7345,-4.7421,-4.755,-4.7482,-4.7611,-4.7601,-4.761,-4.7682,-4.7593,-4.7663,-4.7592,-4.7656,-4.7617,-4.7737,-4.7749,-4.7737,-4.7726,-4.7746,-4.7748,-4.7768,-4.775,-4.7694,-4.7692,-4.769,-4.7689,0,-4.7601,-4.7559,-4.7687,-4.7676,-4.7675,-4.7771,-4.7761,-4.7831,-4.7805,-4.7898,-4.7916,-4.7876,-4.7946,-4.7899,-4.797,-4.7943,-4.81,-4.8065,-4.8096,-4.8087,-4.821,-4.82,-4.8615,-4.8666,-4.8276,-4.828,-4.8283,0,-4.7789,-4.7877,-4.7875,-4.7917,-4.7926,-4.7995,-4.803,-4.7966,-4.8007,-4.8031,-4.8099,-4.816,-4.8207,-4.8323,-4.8301,-4.8354,-4.832,-4.8462,-4.8328,-4.8345,-4.8324,-4.832,-4.8329,-4.849,-4.8494,-4.8498,-4.8501,0,-4.8127,-4.8102,-4.8157,-4.8205,-4.825,-4.8285,-4.8312,-4.8352,-4.8288,-4.8338,-4.8408,-4.8444,-4.8516,-4.8579,-4.8623,-4.8624,-4.8554,-4.8543,-4.8574,-4.8597,-4.8611,-4.8606,-4.8171,-4.8534,-4.8531,-4.8528,-4.8527,-4.8525,-4.838,-4.8453,-4.8464,-4.8528,-4.8541,-4.8569,-4.8634,-4.8617,-4.8674,-4.8727,-4.8686,-4.877,-4.8782,-4.8834,-4.8845,-4.8909,-4.8851,-4.8896,-4.8907,-4.892,-4.8938,-4.86,-4.8917,-4.8916,-4.8915,-4.8914,-4.8913,0,-4.8715,-4.8716,-4.8775,-4.8816,-4.8867,-4.8794,-4.882,-4.8868,-4.8943,-4.896,-4.9007,-4.9088,-4.9149,-4.913,-4.9184,-4.9239,-4.9208,-4.9256,-4.9252,-4.9254,-4.8986,-4.8954,-4.928,-4.928,-4.928,-4.928,-4.928,-4.928,-4.8895,-4.9016,-4.8992,-4.9118,-4.9117,-4.9199,-4.9221,-4.9246,-4.9259,-4.9353,-4.9403,-4.939,-4.9393,-4.9447,-4.9499,-4.9492,-4.9516,-4.9577,-4.9558,-4.9309,-4.9273,-4.9238,-4.9208,-4.9582,-4.9583,-4.9821,-4.9823,-4.9825]},{"header":{"parameterUnit":"m.s-1","parameterCategory":1,"la1":30.2991,"la2":30.254,"lo1":-89.0895,"lo2":-89.0444,"dy":0.0017,"dx":0.0017,"nx":28,"ny":28,"refTime":"2024-10-06T03:00:00:Z","depth":0,"parameterNumber":3,"parameterNumberName":"V-component_of_WINDS"},"data":[0,0,0,0,0,0,0,0,0,0,0,0,0,0,0,0,0,0,0,0,0,0,0,0,0,0,0,0,0,0,0,0,0,0,0,0,0,0,0,0,0,0,0,0,0,0,0,0,0,0,0,0,0,0,0,0,0,0,-4.5543,-4.5543,0,-4.5545,-4.5545,-4.5545,-4.5457,-4.5454,-4.5452,-4.545,-4.5453,-4.5455,-4.5457,0,0,0,0,0,0,0,0,0,0,0,0,0,-4.5462,-4.5464,-4.5543,-4.5543,-4.5543,-4.5545,-4.5545,-4.5545,-4.5457,-4.5454,-4.5451,-4.5449,-4.5452,-4.5455,-4.5457,0,0,0,0,0,0,0,0,0,0,0,0,0,-4.5484,-4.5464,-4.5542,-4.5499,-4.5495,-4.5545,-4.5545,-4.5545,-4.5458,-4.5454,-4.5451,-4.5447,-4.5451,-4.5454,-4.5458,-4.5549,0,0,-4.5468,-4.547,0,0,0,0,0,0,0,0,-4.5483,-4.5487,-4.5505,-4.5502,-4.5498,-4.5497,-4.5517,-4.5546,-4.5459,-4.5472,-4.545,-4.5446,-4.547,-4.5472,-4.548,-4.5549,-4.5549,-4.5468,-4.547,-4.5472,-4.5473,0,0,0,0,0,0,0,-4.5481,-4.5486,-4.5543,-4.5506,-4.5501,-4.5479,-4.5478,-4.5522,-4.5491,-4.5471,-4.5464,-4.5466,-4.5468,-4.5477,-4.5479,-4.5549,-4.5468,-4.5471,-4.5473,-4.5475,-4.569,-4.5694,0,0,0,0,0,0,-4.5486,-4.5485,-4.5543,-4.5543,-4.5481,-4.5484,-4.5483,-4.5501,-4.549,-4.5485,-4.5469,-4.5462,-4.5473,-4.5476,-4.5479,-4.5583,-4.5472,-4.5475,-4.5477,-4.5687,-4.5691,-4.5695,0,0,0,0,0,0,-4.5484,-4.5492,-4.5543,-4.5513,-4.5517,-4.5489,-4.551,-4.5503,-4.5512,-4.5489,-4.5483,-4.5484,-4.547,-4.5474,-4.5532,-4.5582,-4.5477,-4.548,-4.5682,-4.5688,-4.5693,-4.5794,0,0,0,0,0,0,-4.5482,-4.5492,-4.5526,-4.5514,-4.5519,-4.5596,-4.5513,-4.5505,-4.5518,-4.5509,-4.5501,-4.5497,-4.5468,-4.5527,-4.5535,-4.5585,-4.5482,-4.5678,-4.5685,-4.5691,-4.5786,-4.5802,-4.5816,0,0,0,0,0,-4.548,-4.5555,-4.5529,-4.5536,-4.5562,-4.5599,-4.5602,-4.5567,-4.5522,-4.5557,-4.5541,-4.5497,-4.5576,-4.5534,-4.5542,-4.5594,-4.5674,-4.5683,-4.5691,-4.5779,-4.5799,-4.5816,0,0,0,0,0,0,-4.5575,-4.5553,-4.5523,-4.5597,-4.5601,-4.5584,-4.5627,-4.559,-4.5606,-4.5597,-4.5553,-4.5552,-4.5616,-4.561,-4.5564,-4.568,-4.5617,-4.5627,-4.5681,-4.57,-4.5715,-4.5715,-4.5485,0,0,0,0,0,-4.5605,-4.5637,-4.5616,-4.5683,-4.5686,-4.5656,-4.5671,-4.5643,-4.5645,-4.5647,-4.5635,-4.5639,-4.5664,-4.5682,-4.5704,-4.5785,-4.5781,-4.5825,-4.584,-4.5852,-4.5862,-4.5902,-4.5921,-4.5723,-4.5723,-4.5722,0,0,-4.5667,-4.5658,-4.5682,-4.5702,-4.5701,-4.5735,-4.5658,-4.5698,-4.5722,-4.5653,-4.5705,-4.5697,-4.5698,-4.5767,-4.5797,-4.5765,-4.5915,-4.5863,-4.5873,-4.5875,-4.5913,-4.5931,-4.5948,-4.5728,-4.5727,-4.5726,0,0,-4.5796,-4.5794,-4.5848,-4.5849,-4.5848,-4.5828,-4.5841,-4.583,-4.5822,-4.5874,-4.5822,-4.585,-4.5895,-4.5897,-4.5904,-4.6032,-4.5991,-4.604,-4.6119,-4.6159,-4.6175,-4.6189,-4.6233,-4.625,-4.605,-4.605,-4.605,0,-4.5873,-4.5921,-4.5881,-4.5923,-4.5933,-4.5871,-4.5925,-4.5928,-4.5936,-4.5943,-4.5907,-4.596,-4.5957,-4.6025,-4.6056,-4.6064,-4.6077,-4.6041,-4.6176,-4.6189,-4.6201,-4.6243,-4.626,-4.6056,-4.6055,-4.6055,-4.6054,0,-4.6015,-4.6049,-4.6093,-4.61,-4.6115,-4.6164,-4.613,-4.615,-4.6121,-4.6104,-4.6156,-4.615,-4.6168,-4.6183,-4.6155,-4.6246,-4.6226,-4.6184,-4.6119,-4.6227,-4.6265,-4.6281,-4.6064,-4.6062,-4.6061,-4.6059,0,0,-4.6206,-4.6189,-4.6205,-4.6207,-4.6201,-4.6226,-4.6271,-4.6288,-4.6306,-4.6312,-4.6348,-4.6386,-4.6347,-4.6355,-4.6326,-4.6362,-4.6462,-4.6315,-4.6314,-4.6341,-4.656,-4.6591,-4.661,-4.6435,-4.6438,-4.644,-4.6559,0,-4.633,-4.6405,-4.6369,-4.6448,-4.6478,-4.6419,-4.6457,-4.6458,-4.6443,-4.6466,-4.6449,-4.6476,-4.6422,-4.6426,-4.6459,-4.6443,-4.6505,-4.6434,-4.6467,-4.6469,-4.6468,-4.6631,-4.6664,-4.6777,-4.6574,-4.6577,-4.6579,0,-4.6486,-4.6497,-4.6579,-4.6565,-4.6576,-4.6612,-4.6623,-4.6647,-4.6645,-4.6631,-4.664,-4.6603,-4.6645,-4.6581,-4.6638,-4.659,-4.6602,-4.6596,-4.6599,-4.66,-4.653,-4.6635,-4.6813,-4.6829,-4.6602,-4.66,-4.6599,0,-4.6615,-4.6651,-4.6704,-4.6707,-4.6693,-4.6719,-4.6714,-4.6709,-4.6721,-4.6732,-4.6739,-4.6755,-4.6763,-4.6776,-4.6744,-4.6701,-4.6805,-4.6739,-4.6795,-4.6795,-4.6819,-4.6818,-4.7,-4.6828,-4.6828,-4.6827,-4.6827,0,-4.6757,-4.6809,-4.6761,-4.6794,-4.685,-4.6808,-4.6864,-4.6853,-4.6849,-4.6878,-4.6828,-4.6856,-4.6812,-4.6836,-4.6811,-4.6861,-4.6866,-4.6856,-4.6848,-4.686,-4.6861,-4.6866,-4.6857,-4.6832,-4.6831,-4.683,-4.6829,0,-4.6911,-4.6881,-4.6935,-4.6916,-4.6912,-4.6954,-4.6938,-4.6967,-4.6948,-4.6985,-4.6991,-4.6961,-4.6987,-4.6956,-4.6979,-4.6962,-4.703,-4.7011,-4.703,-4.7024,-4.7081,-4.7076,-4.7272,-4.7295,-4.711,-4.7112,-4.7113,0,-4.7004,-4.7042,-4.7026,-4.7041,-4.7039,-4.7065,-4.7076,-4.7036,-4.705,-4.705,-4.7079,-4.71,-4.7114,-4.7157,-4.7137,-4.7154,-4.7135,-4.7203,-4.7137,-4.7147,-4.7135,-4.7133,-4.7136,-4.7216,-4.7218,-4.722,-4.7222,0,-4.717,-4.7153,-4.7171,-4.7183,-4.7198,-4.7206,-4.7211,-4.7226,-4.7184,-4.7202,-4.7227,-4.7238,-4.726,-4.7281,-4.7292,-4.7287,-4.7248,-4.7242,-4.7256,-4.7267,-4.7276,-4.7271,-4.7065,-4.7238,-4.7236,-4.7235,-4.7234,-4.7234,-4.7295,-4.7326,-4.7319,-4.734,-4.7339,-4.7344,-4.7369,-4.7352,-4.7372,-4.7386,-4.7361,-4.7392,-4.7387,-4.7398,-4.7397,-4.7421,-4.7392,-4.7412,-4.7416,-4.7422,-4.743,-4.7273,-4.7423,-4.7422,-4.7422,-4.7421,-4.7421,0,-4.7458,-4.745,-4.747,-4.7477,-4.7493,-4.7453,-4.7456,-4.7472,-4.7499,-4.7498,-4.7513,-4.754,-4.756,-4.7541,-4.7557,-4.7579,-4.7561,-4.7585,-4.7582,-4.7582,-4.7456,-4.7442,-4.7599,-4.7599,-4.7599,-4.7599,-4.7599,-4.7599,-4.7545,-4.7593,-4.7575,-4.7622,-4.7613,-4.7642,-4.7646,-4.765,-4.7649,-4.7681,-4.7697,-4.7684,-4.7676,-4.769,-4.7706,-4.77,-4.7708,-4.7738,-4.7726,-4.7608,-4.7591,-4.7574,-4.7561,-4.774,-4.774,-4.7849,-4.785,-4.7851]}]]